(287285) = 2002 TE184

Discovered at Socorro on 2002-10-04 by LINEAR.

Orbit

Orbit type: Main Belt

Note: WebGL enabled browser required.

epoch2023-09-13.0
epoch JD2460200.5
perihelion date2021-06-01.44341
perihelion JD2459366.94341
argument of perihelion (°)221.70262
ascending node (°)222.21776
inclination (°)8.81580
eccentricity0.2643310
perihelion distance (AU)2.0070785
Tisserand w.r.t. Jupiter3.3
ΔV w.r.t. Earth (km/sec)9.3
semimajor axis (AU)2.7282358
mean anomaly (°)182.31235
mean daily motion (°/day)0.21871620
aphelion distance (AU)3.449
period (years)4.51
P-vector [x]0.11119137
P-vector [y]0.94753789
P-vector [z]0.29968055
Q-vector [x]-0.98844888
Q-vector [y]0.13669274
Q-vector [z]-0.06545160
absolute magnitude15.64
phase slope0.15
uncertainty0
referenceMPEC 2023-X102
observations used668
oppositions13
arc length (days)7586
first opposition used2002
last opposition used2023
residual rms (arc-secs)0.72
perturbers coarse indicatorM-v
perturbers precise indicator003Ek
first observation date used2002-10-04.0
last observation date used2023-07-12.0
computer nameMPCLINUX
JD of orbit computation2456847.866623
perihelion JD uncertainty (days)1.2244E-04
argument of perihelion uncertainty (°)5.6957E-05
ascending node uncertainty (°)5.0963E-05
inclination uncertainty (°)1.0464E-05
eccentricity uncertainty 4.9270E-08
perihelion distance uncertainty (AU)1.3413E-07
Minimum Orbit Intersection Distances (in AU)
for orbit epoch: 2460200.5, reference: E2023-XA2
Mercury1.7046
Venus1.29296
Earth1.03104
Mars0.49916
Jupiter1.86685
Saturn6.64558
Uranus15.5886
Neptune27.0135

Observations

682 total observations over interval: 2002 10 04.23388 – 2023 07 12.315542
These data are available for download (format description).

Date (UT) J2000 RA J2000 Dec Magn Location Ref
2002 10 04.23388 00 15 21.57 +10 48 33.3 17.9   644 – Palomar Mountain/NEAT MPS 104273
2002 10 04.24425 00 15 21.05 +10 48 27.6 18.0   644 – Palomar Mountain/NEAT MPS 104273
2002 10 04.25486 00 15 20.53 +10 48 21.9 17.9   644 – Palomar Mountain/NEAT MPS 104273
2002 10 04.25583 00 15 20.40 +10 48 21.5 18.1   704 – Lincoln Laboratory ETS, New Mexico MPS 64133
2002 10 04.27146 00 15 19.63 +10 48 13.3 18.4   704 – Lincoln Laboratory ETS, New Mexico MPS 64133
2002 10 04.28718 00 15 18.87 +10 48 04.3 18.1   704 – Lincoln Laboratory ETS, New Mexico MPS 64133
2002 10 04.30285 00 15 18.06 +10 47 56.0 18.2   704 – Lincoln Laboratory ETS, New Mexico MPS 64133
2002 10 04.31859 00 15 17.30 +10 47 47.7 18.1   704 – Lincoln Laboratory ETS, New Mexico MPS 64133
2002 10 07.26043 00 12 58.35 +10 20 48.9 18.0 R 699 – Lowell Observatory-LONEOS MPS 64133
2002 10 07.28145 00 12 57.33 +10 20 37.3   699 – Lowell Observatory-LONEOS MPS 64133
2002 10 07.30245 00 12 56.31 +10 20 25.4   699 – Lowell Observatory-LONEOS MPS 64133
2002 10 07.32347 00 12 55.30 +10 20 14.0   699 – Lowell Observatory-LONEOS MPS 64133
2002 10 09.25339 00 11 26.18 +10 02 08.5 18.0   704 – Lincoln Laboratory ETS, New Mexico MPS 64133
2002 10 09.26899 00 11 25.42 +10 01 59.8 18.1   704 – Lincoln Laboratory ETS, New Mexico MPS 64133
2002 10 09.28457 00 11 24.68 +10 01 50.4 18.2   704 – Lincoln Laboratory ETS, New Mexico MPS 64133
2002 10 09.30007 00 11 23.92 +10 01 41.7 18.4   704 – Lincoln Laboratory ETS, New Mexico MPS 64133
2002 10 09.31589 00 11 23.19 +10 01 32.8 18.4   704 – Lincoln Laboratory ETS, New Mexico MPS 64133
2002 10 12.24879 00 09 12.15 +09 33 41.7 18.5   704 – Lincoln Laboratory ETS, New Mexico MPS 64133
2002 10 12.26529 00 09 11.39 +09 33 32.6 18.7   704 – Lincoln Laboratory ETS, New Mexico MPS 64133
2002 10 12.28187 00 09 10.62 +09 33 23.0 18.7   704 – Lincoln Laboratory ETS, New Mexico MPS 64133
2002 10 12.29859 00 09 09.89 +09 33 13.4 18.9   704 – Lincoln Laboratory ETS, New Mexico MPS 64133
2002 10 12.31506 00 09 09.12 +09 33 03.9 18.9   704 – Lincoln Laboratory ETS, New Mexico MPS 64133
2002 10 28.38709 23 59 47.62 +07 03 43.7 19.8   608 – Haleakala-AMOS MPS 66139
2002 10 28.39773 23 59 47.32 +07 03 38.6 19.7   608 – Haleakala-AMOS MPS 66139
2002 10 28.40812 23 59 47.07 +07 03 32.8 20.0   608 – Haleakala-AMOS MPS 66139
2002 11 08.15839 23 57 03.20 +05 39 45.4 18.7   704 – Lincoln Laboratory ETS, New Mexico MPS 66139
2002 11 08.17539 23 57 03.07 +05 39 38.5 19.5   704 – Lincoln Laboratory ETS, New Mexico MPS 66139
2002 11 08.19248 23 57 02.90 +05 39 30.5 19.5   704 – Lincoln Laboratory ETS, New Mexico MPS 66139
2002 11 08.20950 23 57 02.80 +05 39 23.8 19.3   704 – Lincoln Laboratory ETS, New Mexico MPS 66139
2002 11 08.22671 23 57 02.64 +05 39 16.9 18.9   704 – Lincoln Laboratory ETS, New Mexico MPS 66139
2002 11 12.15801 23 56 53.75 +05 14 01.8 19.3   704 – Lincoln Laboratory ETS, New Mexico MPS 66139
2002 11 12.17510 23 56 53.69 +05 13 55.9 19.2   704 – Lincoln Laboratory ETS, New Mexico MPS 66139
2002 11 12.19231 23 56 53.78 +05 13 49.4 19.5   704 – Lincoln Laboratory ETS, New Mexico MPS 66139
2002 11 12.20961 23 56 53.67 +05 13 41.8 19.4   704 – Lincoln Laboratory ETS, New Mexico MPS 66139
2002 11 12.22685 23 56 53.69 +05 13 35.9 19.4   704 – Lincoln Laboratory ETS, New Mexico MPS 66139
2002 12 06.13958 00 05 43.12 +03 52 25.1 17.9   704 – Lincoln Laboratory ETS, New Mexico MPS 68070
2002 12 06.15470 00 05 43.43 +03 52 26.5 19.5   704 – Lincoln Laboratory ETS, New Mexico MPS 68070
2002 12 06.16981 00 05 44.16 +03 52 25.0 19.6   704 – Lincoln Laboratory ETS, New Mexico MPS 68070
2002 12 06.18485 00 05 44.67 +03 52 24.9 19.6   704 – Lincoln Laboratory ETS, New Mexico MPS 68070
2003 01 04.09211 00 35 13.08 +04 48 20.5 20.2   704 – Lincoln Laboratory ETS, New Mexico MPS 69969
2003 01 04.10782 00 35 14.38 +04 48 25.1 20.1   704 – Lincoln Laboratory ETS, New Mexico MPS 69969
2003 01 04.12332 00 35 15.61 +04 48 29.0 20.8   704 – Lincoln Laboratory ETS, New Mexico MPS 69969
2003 01 04.13861 00 35 16.70 +04 48 32.8 20.3   704 – Lincoln Laboratory ETS, New Mexico MPS 69969
2004 03 16.22745 12 04 35.70 -10 32 34.1 18.6 V 703 – Catalina Sky Survey MPS 103111
2004 03 16.24121 12 04 34.92 -10 32 28.0 19.6 V 703 – Catalina Sky Survey MPS 103111
2004 03 16.25494 12 04 34.28 -10 32 21.3 19.6 V 703 – Catalina Sky Survey MPS 103111
2004 03 16.26867 12 04 33.56 -10 32 15.8 19.7 V 703 – Catalina Sky Survey MPS 103111
2004 03 17.29392 12 03 42.35 -10 24 23.4 19.0   704 – Lincoln Laboratory ETS, New Mexico MPS 103111
2004 03 17.30677 12 03 41.77 -10 24 17.4 19.8   704 – Lincoln Laboratory ETS, New Mexico MPS 103111
2004 03 17.31900 12 03 41.12 -10 24 11.8 19.3   704 – Lincoln Laboratory ETS, New Mexico MPS 103111
2004 03 17.33111 12 03 40.49 -10 24 05.7 19.3   704 – Lincoln Laboratory ETS, New Mexico MPS 103111
2004 03 17.34364 12 03 39.88 -10 24 00.2 19.4   704 – Lincoln Laboratory ETS, New Mexico MPS 103111
2004 03 27.29105 11 55 30.21 -09 02 26.4 19.5 V 703 – Catalina Sky Survey MPS 103111
2004 03 27.30295 11 55 29.74 -09 02 20.8 19.1 V 703 – Catalina Sky Survey MPS 103111
2004 03 27.31479 11 55 29.14 -09 02 14.6 19.8 V 703 – Catalina Sky Survey MPS 103111
2004 03 27.32668 11 55 28.55 -09 02 08.5 19.4 V 703 – Catalina Sky Survey MPS 103111
2004 04 16.15831 11 42 34.58 -06 17 34.7 19.4   644 – Palomar Mountain/NEAT MPS 106226
2004 04 16.17895 11 42 33.97 -06 17 25.2 19.8   644 – Palomar Mountain/NEAT MPS 106226
2004 04 16.20000 11 42 33.40 -06 17 15.9 19.3   644 – Palomar Mountain/NEAT MPS 106226
2004 04 19.26562 11 41 13.35 -05 54 34.2 20.3   704 – Lincoln Laboratory ETS, New Mexico MPS 105079
2004 04 19.27649 11 41 13.13 -05 54 28.9 19.7   704 – Lincoln Laboratory ETS, New Mexico MPS 105079
2004 04 19.28731 11 41 12.82 -05 54 23.3 19.9   704 – Lincoln Laboratory ETS, New Mexico MPS 105079
2007 10 22.40137 06 55 10.18 +16 28 35.0 19.2   704 – Lincoln Laboratory ETS, New Mexico MPS 223369
2007 10 22.41314 06 55 10.98 +16 28 28.1 19.0   704 – Lincoln Laboratory ETS, New Mexico MPS 223369
2007 10 22.42488 06 55 11.71 +16 28 22.9 19.2   704 – Lincoln Laboratory ETS, New Mexico MPS 223369
2007 11 04.43645 07 07 09.12 +14 39 07.9 19.4   704 – Lincoln Laboratory ETS, New Mexico MPS 224715
2007 11 04.44862 07 07 09.56 +14 39 01.0 19.1   704 – Lincoln Laboratory ETS, New Mexico MPS 224715
2007 11 04.46078 07 07 10.08 +14 38 54.5 18.9   704 – Lincoln Laboratory ETS, New Mexico MPS 224715
2007 11 04.47339 07 07 10.54 +14 38 47.5 19.4   704 – Lincoln Laboratory ETS, New Mexico MPS 224715
2007 11 04.48557 07 07 11.08 +14 38 41.9 19.1   704 – Lincoln Laboratory ETS, New Mexico MPS 224715
2007 11 12.37429 07 11 53.45 +13 30 22.3 18.7   704 – Lincoln Laboratory ETS, New Mexico MPS 226763
2007 11 12.38656 07 11 53.72 +13 30 15.7 19.5   704 – Lincoln Laboratory ETS, New Mexico MPS 226763
2007 11 12.39880 07 11 54.03 +13 30 09.4 19.0   704 – Lincoln Laboratory ETS, New Mexico MPS 226763
2007 11 12.41104 07 11 54.33 +13 30 03.5 19.1   704 – Lincoln Laboratory ETS, New Mexico MPS 226763
2007 11 12.42328 07 11 54.70 +13 29 57.4 19.0   704 – Lincoln Laboratory ETS, New Mexico MPS 226763
2008 02 29.23021 06 37 50.72 +10 22 17.2 19.4   704 – Lincoln Laboratory ETS, New Mexico MPS 240655
2008 02 29.24145 06 37 51.07 +10 22 19.8 19.5   704 – Lincoln Laboratory ETS, New Mexico MPS 240655
2008 02 29.25244 06 37 51.53 +10 22 22.9 19.4   704 – Lincoln Laboratory ETS, New Mexico MPS 240655
2009 05 27.28370 14 26 12.48 -13 26 40.7 20.3 V G96 – Mt. Lemmon Survey MPS 287361
2009 05 27.28928 14 26 12.30 -13 26 38.4 20.4 V G96 – Mt. Lemmon Survey MPS 287361
2009 05 27.29477 14 26 12.08 -13 26 37.1 20.6 V G96 – Mt. Lemmon Survey MPS 287361
2009 05 27.30028 14 26 11.86 -13 26 35.1 20.5 V G96 – Mt. Lemmon Survey MPS 287361
2009 06 14.23494 14 18 24.08 -12 17 21.9 20.5 V G96 – Mt. Lemmon Survey MPS 288630
2009 06 14.24179 14 18 23.97 -12 17 21.0 20.8 V G96 – Mt. Lemmon Survey MPS 288630
2009 06 14.24873 14 18 23.86 -12 17 19.5 20.8 V G96 – Mt. Lemmon Survey MPS 288630
2011 06 11.57325 23 50 22.492 +07 35 08.67 21.2 w F51 – Pan-STARRS 1, Haleakala MPS 384643
2011 06 11.57878 23 50 22.825 +07 35 11.40 21.1 w F51 – Pan-STARRS 1, Haleakala MPS 384643
